EW9411 Weather Reports


time (UTC)temp
C
wind
direction
speed
KPH
gust
KPH
rain 1hr
cm
rain 24hr
cm
rain mn
cm
humidity
%
barometer
mb
20260505224337 26 235 16.1 30.6 0.00 0.00 0.00 35 1006.1
20260505224136 26 231 11.3 33.8 0.00 0.00 0.00 35 1006.0
20260505223846 26 219 14.5 33.8 0.00 0.00 0.00 35 1005.9
20260505223645 26 200 16.1 33.8 0.00 0.00 0.00 35 1006.0
20260505223336 27 175 19.3 33.8 0.00 0.00 0.00 34 1005.9
20260505223134 27 202 14.5 30.6 0.00 0.00 0.00 34 1005.9
20260505222844 27 228 9.7 33.8 0.00 0.00 0.00 34 1005.9
20260505222642 27 225 6.4 33.8 0.00 0.00 0.00 35 1005.9
20260505222333 27 210 14.5 33.8 0.00 0.00 0.00 34 1005.9
20260505222218 27 216 14.5 33.8 0.00 0.00 0.00 34 1005.9
20260505221907 27 193 12.9 29.0 0.00 0.00 0.00 34 1005.9
20260505221644 27 203 11.3 29.0 0.00 0.00 0.00 34 1005.9
20260505221333 27 232 14.5 24.1 0.00 0.00 0.00 34 1005.9
20260505221210 27 249 12.9 24.1 0.00 0.00 0.00 34 1005.9
20260505220840 27 253 14.5 25.7 0.00 0.00 0.00 34 1005.9
20260505220637 27 240 11.3 32.2 0.00 0.00 0.00 34 1005.8
20260505220344 27 246 12.9 32.2 0.00 0.00 0.00 33 1005.8
20260505220207 27 225 17.7 32.2 0.00 0.00 0.00 33 1005.7
20260505215832 27 200 16.1 32.2 0.00 0.00 0.00 33 1005.7
20260505215635 27 227 14.5 30.6 0.00 0.00 0.00 32 1005.8
20260505215341 27 243 8.0 30.6 0.00 0.00 0.00 34 1005.8
20260505215143 27 212 17.7 33.8 0.00 0.00 0.00 32 1005.8
20260505214850 27 220 17.7 33.8 0.00 0.00 0.00 32 1005.8
20260505214653 27 213 14.5 33.8 0.00 0.00 0.00 33 1005.7
20260505214338 27 223 8.0 32.2 0.00 0.00 0.00 33 1005.7
20260505214158 27 260 14.5 37.0 0.00 0.00 0.00 32 1005.7
20260505213846 27 218 14.5 37.0 0.00 0.00 0.00 33 1005.7
20260505213644 27 212 9.7 37.0 0.00 0.00 0.00 33 1005.5
20260505213334 27 229 11.3 41.8 0.00 0.00 0.00 33 1005.6
20260505213133 27 196 14.5 41.8 0.00 0.00 0.00 33 1005.6
20260505212911 27 221 14.5 48.3 0.00 0.00 0.00 34 1005.5
20260505212647 27 244 20.9 48.3 0.00 0.00 0.00 33 1005.5
20260505212336 27 231 24.1 48.3 0.00 0.00 0.00 32 1005.4
20260505212157 27 211 22.5 33.8 0.00 0.00 0.00 34 1005.2
20260505211846 27 181 19.3 33.8 0.00 0.00 0.00 35 1005.2
20260505211645 27 186 19.3 33.8 0.00 0.00 0.00 34 1005.2
20260505211334 27 252 17.7 29.0 0.00 0.00 0.00 35 1005.2
20260505211132 27 261 16.1 33.8 0.00 0.00 0.00 34 1005.4
20260505210843 27 266 20.9 43.5 0.00 0.00 0.00 34 1005.3
20260505210641 27 216 14.5 43.5 0.00 0.00 0.00 35 1005.3
20260505210333 27 216 19.3 43.5 0.00 0.00 0.00 35 1005.3
20260505210150 27 257 24.1 43.5 0.00 0.00 0.00 35 1005.3
20260505205839 27 214 19.3 40.2 0.00 0.00 0.00 34 1005.4
20260505205637 27 225 19.3 40.2 0.00 0.00 0.00 34 1005.3
20260505205404 27 220 14.5 40.2 0.00 0.00 0.00 35 1005.3
20260505205145 27 208 25.7 40.2 0.00 0.00 0.00 34 1005.3
20260505204831 27 145 19.3 40.2 0.00 0.00 0.00 35 1005.3
20260505204634 27 233 16.1 32.2 0.00 0.00 0.00 37 1005.4
20260505204342 27 234 19.3 32.2 0.00 0.00 0.00 36 1005.3
20260505204144 27 214 17.7 30.6 0.00 0.00 0.00 36 1005.3
20260505203832 27 202 11.3 33.8 0.00 0.00 0.00 37 1005.4
20260505203634 27 234 9.7 37.0 0.00 0.00 0.00 37 1005.5
20260505203342 27 198 19.3 40.2 0.00 0.00 0.00 36 1005.6
20260505203144 27 246 19.3 40.2 0.00 0.00 0.00 36 1005.5
20260505202849 27 225 20.9 40.2 0.00 0.00 0.00 36 1005.5
20260505202653 28 216 19.3 40.2 0.00 0.00 0.00 36 1005.4
20260505202339 28 250 16.1 49.9 0.00 0.00 0.00 36 1005.6
20260505202135 27 213 17.7 49.9 0.00 0.00 0.00 36 1005.5
20260505201845 27 194 24.1 49.9 0.00 0.00 0.00 35 1005.5
20260505201643 28 230 20.9 46.7 0.00 0.00 0.00 37 1005.6
20260505201413 27 189 12.9 37.0 0.00 0.00 0.00 37 1005.5
20260505201210 27 250 24.1 37.0 0.00 0.00 0.00 36 1005.7
20260505200840 28 184 16.1 37.0 0.00 0.00 0.00 37 1005.5
20260505200638 28 211 17.7 37.0 0.00 0.00 0.00 36 1005.6
20260505200350 28 149 14.5 37.0 0.00 0.00 0.00 36 1005.5
20260505200207 28 207 17.7 37.0 0.00 0.00 0.00 37 1005.5
20260505195838 28 268 17.7 37.0 0.00 0.00 0.00 36 1005.5
20260505195636 28 212 19.3 38.6 0.00 0.00 0.00 34 1005.5
20260505195347 28 235 12.9 38.6 0.00 0.00 0.00 36 1005.5
20260505195142 28 209 12.9 38.6 0.00 0.00 0.00 35 1005.6
20260505194833 28 221 17.7 37.0 0.00 0.00 0.00 35 1005.6
20260505194651 28 276 16.1 35.4 0.00 0.00 0.00 35 1005.5
20260505194338 28 201 20.9 35.4 0.00 0.00 0.00 36 1005.6
20260505194139 28 227 19.3 37.0 0.00 0.00 0.00 36 1005.6
20260505193906 28 257 17.7 30.6 0.00 0.00 0.00 35 1005.7
20260505193646 28 226 11.3 35.4 0.00 0.00 0.00 36 1005.7
20260505193354 28 204 17.7 35.4 0.00 0.00 0.00 37 1005.7
20260505193156 27 189 16.1 35.4 0.00 0.00 0.00 38 1005.8
20260505192842 27 219 22.5 35.4 0.00 0.00 0.00 36 1005.8
20260505192639 27 230 22.5 35.4 0.00 0.00 0.00 37 1005.8
20260505192350 27 210 19.3 32.2 0.00 0.00 0.00 37 1005.8
20260505192148 27 187 17.7 33.8 0.00 0.00 0.00 37 1005.9
20260505191838 27 237 11.3 37.0 0.00 0.00 0.00 38 1006.0
20260505191635 27 206 16.1 37.0 0.00 0.00 0.00 37 1006.0
20260505191343 27 221 22.5 45.1 0.00 0.00 0.00 37 1005.9
20260505191141 27 202 22.5 45.1 0.00 0.00 0.00 37 1006.0
20260505190911 27 220 22.5 45.1 0.00 0.00 0.00 37 1006.1
20260505190709 27 173 25.7 45.1 0.00 0.00 0.00 37 1006.1
20260505190339 27 216 22.5 40.2 0.00 0.00 0.00 37 1006.1
20260505190135 27 243 22.5 48.3 0.00 0.00 0.00 38 1006.1
20260505185845 28 202 20.9 48.3 0.00 0.00 0.00 37 1006.2
20260505185644 28 211 19.3 48.3 0.00 0.00 0.00 38 1006.1
20260505185333 28 205 17.7 29.0 0.00 0.00 0.00 37 1006.1
20260505185151 28 165 12.9 29.0 0.00 0.00 0.00 39 1006.1
20260505184842 28 186 11.3 37.0 0.00 0.00 0.00 40 1006.1
20260505184641 28 233 16.1 37.0 0.00 0.00 0.00 39 1006.2
20260505184333 28 204 19.3 37.0 0.00 0.00 0.00 40 1006.4
20260505184150 28 206 9.7 25.7 0.00 0.00 0.00 43 1006.3
20260505183835 28 220 12.9 33.8 0.00 0.00 0.00 41 1006.5
20260505183637 27 176 14.5 33.8 0.00 0.00 0.00 41 1006.6
20260505183344 27 193 17.7 35.4 0.00 0.00 0.00 39 1006.6
20260505183146 27 191 20.9 35.4 0.00 0.00 0.00 39 1006.6
20260505182833 27 181 16.1 35.4 0.00 0.00 0.00 40 1006.8
20260505182635 27 279 22.5 45.1 0.00 0.00 0.00 39 1006.7
20260505182341 27 199 19.3 45.1 0.00 0.00 0.00 39 1006.7
20260505182144 27 185 17.7 45.1 0.00 0.00 0.00 41 1006.7
20260505181851 27 175 19.3 46.7 0.00 0.00 0.00 41 1006.7
20260505181633 27 241 17.7 32.2 0.00 0.00 0.00 41 1006.6
20260505181338 28 214 12.9 32.2 0.00 0.00 0.00 42 1006.6
20260505181141 27 212 14.5 32.2 0.00 0.00 0.00 44 1006.7
20260505180847 27 212 17.7 32.2 0.00 0.00 0.00 42 1006.8
20260505180649 27 229 12.9 37.0 0.00 0.00 0.00 42 1006.7
20260505180335 27 251 12.9 37.0 0.00 0.00 0.00 43 1006.8
20260505180136 27 148 19.3 40.2 0.00 0.00 0.00 43 1006.8
20260505175845 27 217 19.3 40.2 0.00 0.00 0.00 43 1006.9
20260505175642 27 212 14.5 40.2 0.00 0.00 0.00 45 1006.9
20260505175333 27 202 20.9 40.2 0.00 0.00 0.00 45 1006.8
20260505175150 27 208 9.7 33.8 0.00 0.00 0.00 48 1006.8
20260505174839 27 251 16.1 30.6 0.00 0.00 0.00 44 1006.9
20260505174657 27 217 16.1 30.6 0.00 0.00 0.00 44 1006.9
20260505174347 27 237 14.5 30.6 0.00 0.00 0.00 44 1006.9
20260505174145 27 208 17.7 30.6 0.00 0.00 0.00 45 1006.9
20260505173836 27 194 14.5 30.6 0.00 0.00 0.00 47 1006.9
20260505173634 27 181 14.5 30.6 0.00 0.00 0.00 45 1007.0
20260505173345 27 212 17.7 32.2 0.00 0.00 0.00 45 1007.0
20260505173204 27 235 14.5 32.2 0.00 0.00 0.00 47 1007.0
20260505172833 27 228 17.7 32.2 0.00 0.00 0.00 45 1007.0
20260505172650 27 182 14.5 32.2 0.00 0.00 0.00 46 1007.1
20260505172339 26 188 14.5 32.2 0.00 0.00 0.00 46 1007.2
20260505172138 26 232 14.5 32.2 0.00 0.00 0.00 46 1007.2
20260505171848 26 239 17.7 32.2 0.00 0.00 0.00 45 1007.3
20260505171707 26 214 17.7 27.4 0.00 0.00 0.00 46 1007.3
20260505171332 26 227 14.5 29.0 0.00 0.00 0.00 46 1007.4
20260505171135 26 199 12.9 29.0 0.00 0.00 0.00 46 1007.4
20260505170842 26 216 14.5 29.0 0.00 0.00 0.00 46 1007.4
20260505170642 26 199 16.1 29.0 0.00 0.00 0.00 47 1007.5
20260505170409 26 229 19.3 30.6 0.00 0.00 0.00 46 1007.5
20260505170149 26 218 16.1 27.4 0.00 0.00 0.00 47 1007.5
20260505165836 26 233 19.3 27.4 0.00 0.00 0.00 47 1007.6
20260505165637 26 198 16.1 32.2 0.00 0.00 0.00 47 1007.6
20260505165405 26 176 12.9 32.2 0.00 0.00 0.00 47 1007.7
20260505165141 26 254 16.1 32.2 0.00 0.00 0.00 48 1007.8
20260505164850 26 207 20.9 32.2 0.00 0.00 0.00 47 1007.8
20260505164710 26 202 14.5 24.1 0.00 0.00 0.00 50 1007.7
20260505164339 26 212 16.1 24.1 0.00 0.00 0.00 49 1007.8
20260505164137 26 208 16.1 24.1 0.00 0.00 0.00 48 1007.8
20260505163847 26 225 12.9 24.1 0.00 0.00 0.00 48 1007.8
20260505163646 26 239 11.3 24.1 0.00 0.00 0.00 50 1007.8
20260505163336 26 239 11.3 29.0 0.00 0.00 0.00 49 1007.8
20260505163134 26 235 16.1 29.0 0.00 0.00 0.00 48 1007.9
20260505162844 26 225 14.5 29.0 0.00 0.00 0.00 49 1007.9
20260505162641 26 197 17.7 29.0 0.00 0.00 0.00 49 1007.9
20260505162332 26 243 8.0 20.9 0.00 0.00 0.00 53 1007.9
20260505162209 25 185 9.7 27.4 0.00 0.00 0.00 50 1007.9
20260505161840 25 237 11.3 27.4 0.00 0.00 0.00 51 1007.9
20260505161657 25 225 11.3 27.4 0.00 0.00 0.00 50 1008.0
20260505161339 25 190 12.9 22.5 0.00 0.00 0.00 50 1008.0
20260505161143 25 229 11.3 22.5 0.00 0.00 0.00 49 1008.1
20260505160849 25 217 8.0 22.5 0.00 0.00 0.00 53 1008.1
20260505160631 25 162 12.9 25.7 0.00 0.00 0.00 52 1008.2
20260505160337 25 194 11.3 19.3 0.00 0.00 0.00 51 1008.1
20260505160200 25 178 11.3 22.5 0.00 0.00 0.00 50 1008.1
20260505153350 24 173 12.9 22.5 0.00 0.00 0.00 54 1008.6
20260505153210 24 208 11.3 19.3 0.00 0.00 0.00 56 1008.8
20260505152840 23 193 12.9 19.3 0.00 0.00 0.00 55 1008.8
20260505152639 23 218 11.3 19.3 0.00 0.00 0.00 55 1008.7
20260505152351 23 133 11.3 22.5 0.00 0.00 0.00 56 1008.7
20260505152209 23 185 11.3 22.5 0.00 0.00 0.00 57 1008.8
20260505151839 23 223 8.0 22.5 0.00 0.00 0.00 57 1008.8
20260505151638 23 193 14.5 22.5 0.00 0.00 0.00 56 1008.8
20260505151342 23 186 9.7 17.7 0.00 0.00 0.00 57 1008.7
20260505151143 23 204 8.0 17.7 0.00 0.00 0.00 56 1008.8
20260505150910 23 214 8.0 17.7 0.00 0.00 0.00 57 1008.8
20260505150634 23 226 9.7 19.3 0.00 0.00 0.00 57 1008.8
20260505150340 23 187 4.8 19.3 0.00 0.00 0.00 57 1008.8
20260505150141 23 206 12.9 19.3 0.00 0.00 0.00 56 1008.8
20260505140645 21 231 11.3 17.7 0.00 0.00 0.00 60 1009.2
20260505140334 21 143 9.7 17.7 0.00 0.00 0.00 60 1009.2
20260505140132 21 154 9.7 17.7 0.00 0.00 0.00 61 1009.2
20260505130149 18 196 6.4 16.1 0.00 0.00 0.00 72 1009.4
20260505124837 17 198 8.0 19.3 0.00 0.00 0.00 73 1009.0
20260505124658 17 181 11.3 19.3 0.00 0.00 0.00 74 1009.0
20260505124347 17 178 8.0 16.1 0.00 0.00 0.00 75 1008.9
20260505124145 17 220 6.4 16.1 0.00 0.00 0.00 76 1008.9
20260505123856 16 210 8.0 14.5 0.00 0.00 0.00 76 1008.9
20260505123634 16 203 8.0 14.5 0.00 0.00 0.00 77 1008.9
20260505123340 16 216 9.7 16.1 0.00 0.00 0.00 77 1009.0
20260505123138 16 218 6.4 16.1 0.00 0.00 0.00 78 1009.0
20260505122903 16 198 8.0 16.1 0.00 0.00 0.00 79 1009.0
20260505122643 16 207 9.7 16.1 0.00 0.00 0.00 79 1009.0
20260505122411 15 198 8.0 16.1 0.00 0.00 0.00 80 1009.0
20260505122149 15 222 9.7 16.1 0.00 0.00 0.00 80 1009.0
20260505121837 15 226 9.7 14.5 0.00 0.00 0.00 81 1009.1
20260505121638 15 208 6.4 12.9 0.00 0.00 0.00 82 1009.1
20260505121343 15 162 4.8 12.9 0.00 0.00 0.00 82 1009.2
20260505121141 15 213 6.4 12.9 0.00 0.00 0.00 83 1009.2
20260505120850 14 177 3.2 8.0 0.00 0.00 0.00 83 1009.2
20260505120646 14 154 3.2 8.0 0.00 0.00 0.00 84 1009.4
20260505120337 13 152 4.8 8.0 0.00 0.00 0.00 84 1009.4
20260505120157 13 187 3.2 6.4 0.00 0.00 0.00 85 1009.5
20260505115847 13 155 1.6 8.0 0.00 0.00 0.00 85 1009.5
20260505115645 13 156 4.8 8.0 0.00 0.00 0.00 86 1009.5
20260505115355 13 173 3.2 6.4 0.00 0.00 0.00 87 1009.4
20260505115133 12 175 1.6 6.4 0.00 0.00 0.00 87 1009.4
20260505114844 12 176 3.2 6.4 0.00 0.00 0.00 88 1009.4
20260505114644 12 216 3.2 4.8 0.00 0.00 0.00 88 1009.4
20260505114333 12 218 3.2 4.8 0.00 0.00 0.00 89 1009.4
20260505114133 12 218 3.2 4.8 0.00 0.00 0.00 89 1009.4
20260505113844 11 227 3.2 4.8 0.00 0.00 0.00 90 1009.3
20260505113641 11 227 1.6 4.8 0.00 0.00 0.00 90 1009.5
20260505113332 11 227 3.2 6.4 0.00 0.00 0.00 90 1009.5
20260505113150 11 227 1.6 6.4 0.00 0.00 0.00 90 1009.4
20260505112841 11 227 1.6 8.0 0.00 0.00 0.00 90 1009.4
20260505112640 11 227 3.2 8.0 0.00 0.00 0.00 90 1009.3
20260505112407 11 227 4.8 8.0 0.00 0.00 0.00 91 1009.3
20260505112208 11 223 3.2 6.4 0.00 0.00 0.00 91 1009.1
20260505111833 11 222 3.2 4.8 0.00 0.00 0.00 91 1009.1
20260505111635 11 222 3.2 4.8 0.00 0.00 0.00 92 1009.1
20260505111341 10 222 1.6 3.2 0.00 0.00 0.00 92 1008.9
20260505111205 10 222 0.0 4.8 0.00 0.00 0.00 92 1008.9
20260505110849 10 222 0.0 4.8 0.00 0.00 0.00 92 1008.9
20260505110647 10 222 1.6 4.8 0.00 0.00 0.00 92 1009.0
20260505110357 10 221 3.2 4.8 0.00 0.00 0.00 92 1009.0
20260505110215 10 223 3.2 4.8 0.00 0.00 0.00 92 1009.0
20260505102142 8 223 0.0 0.0 0.00 0.00 0.00 92 1009.3
20260505101848 8 223 0.0 0.0 0.00 0.00 0.00 92 1009.3
20260505101649 8 223 0.0 0.0 0.00 0.00 0.00 92 1009.2
20260505101333 8 223 0.0 0.0 0.00 0.00 0.00 92 1009.1
20260505101135 8 223 0.0 0.0 0.00 0.00 0.00 92 1009.1
20260505100841 8 223 0.0 0.0 0.00 0.00 0.00 92 1009.1
20260505100643 8 223 0.0 0.0 0.00 0.00 0.00 92 1009.1
20260505100350 8 223 0.0 0.0 0.00 0.00 0.00 92 1008.9
20260505100132 8 223 0.0 0.0 0.00 0.00 0.00 92 1008.8
20260505095838 8 223 0.0 0.0 0.00 0.00 0.00 92 1008.8
20260505095640 8 223 0.0 0.0 0.00 0.00 0.00 92 1008.8
20260505095348 8 223 0.0 0.0 0.00 0.00 0.00 92 1008.8
20260505095150 8 223 0.0 0.0 0.00 0.00 0.00 92 1008.8
20260505094836 8 223 0.0 0.0 0.00 0.00 0.00 91 1008.8
20260505094639 8 223 0.0 0.0 0.00 0.00 0.00 91 1008.9
20260505094346 8 223 0.0 0.0 0.00 0.00 0.00 91 1008.9
20260505094145 7 223 0.0 0.0 0.00 0.00 0.00 91 1008.9
20260505093835 7 223 0.0 0.0 0.00 0.00 0.00 91 1008.8
20260505093635 7 223 0.0 0.0 0.00 0.00 0.00 91 1008.8
20260505093345 7 223 0.0 0.0 0.00 0.00 0.00 91 1008.9
20260505093144 7 223 0.0 0.0 0.00 0.00 0.00 91 1008.7
20260505092835 7 223 0.0 0.0 0.00 0.00 0.00 91 1008.7
20260505092634 8 223 0.0 0.0 0.00 0.00 0.00 91 1008.7
20260505092345 8 223 0.0 0.0 0.00 0.00 0.00 91 1008.7
20260505092143 8 223 0.0 0.0 0.00 0.00 0.00 91 1008.6
20260505091835 8 223 0.0 0.0 0.00 0.00 0.00 91 1008.7
20260505091654 8 223 0.0 0.0 0.00 0.00 0.00 91 1008.6
20260505091403 8 223 0.0 0.0 0.00 0.00 0.00 91 1008.5
20260505091139 8 223 0.0 0.0 0.00 0.00 0.00 90 1008.5
20260505090850 8 223 0.0 0.0 0.00 0.00 0.00 90 1008.5
20260505090648 8 223 0.0 0.0 0.00 0.00 0.00 90 1008.4
20260505090339 8 223 0.0 0.0 0.00 0.00 0.00 90 1008.4
20260505090137 8 223 0.0 0.0 0.00 0.00 0.00 90 1008.4
20260505085846 8 223 0.0 0.0 0.00 0.00 0.00 90 1008.4
20260505085644 8 223 0.0 0.0 0.00 0.00 0.00 90 1008.4
20260505085334 8 223 0.0 0.0 0.00 0.00 0.00 90 1008.4
20260505085154 8 223 0.0 0.0 0.00 0.00 0.00 90 1008.3
20260505084838 8 223 0.0 0.0 0.00 0.00 0.00 90 1008.3
20260505084640 8 223 0.0 0.0 0.00 0.00 0.00 90 1008.3
20260505084347 8 223 0.0 0.0 0.00 0.00 0.00 90 1008.4
20260505084148 8 223 0.0 0.0 0.00 0.00 0.00 90 1008.4
20260505083856 8 223 0.0 0.0 0.00 0.00 0.00 90 1008.5
20260505083637 8 223 0.0 0.0 0.00 0.00 0.00 90 1008.4
20260505083343 8 223 0.0 0.0 0.00 0.00 0.00 90 1008.5
20260505083144 8 223 0.0 0.0 0.00 0.00 0.00 89 1008.4
20260505082831 8 223 0.0 0.0 0.00 0.00 0.00 89 1008.4
20260505082633 8 223 0.0 0.0 0.00 0.00 0.00 89 1008.4
20260505082341 8 223 0.0 0.0 0.00 0.00 0.00 89 1008.5
20260505082138 8 223 0.0 0.0 0.00 0.00 0.00 89 1008.5
20260505081848 8 223 0.0 0.0 0.00 0.00 0.00 89 1008.5
20260505081646 8 223 0.0 0.0 0.00 0.00 0.00 89 1008.4
20260505081355 8 223 0.0 0.0 0.00 0.00 0.00 89 1008.5
20260505081133 8 223 0.0 0.0 0.00 0.00 0.00 89 1008.4
20260505080844 8 223 0.0 0.0 0.00 0.00 0.00 89 1008.5
20260505080643 8 223 0.0 0.0 0.00 0.00 0.00 89 1008.5
20260505080353 8 223 0.0 0.0 0.00 0.00 0.00 89 1008.5
20260505080210 8 223 0.0 0.0 0.00 0.00 0.00 89 1008.5
20260505075839 8 223 0.0 0.0 0.00 0.00 0.00 89 1008.5
20260505075657 8 223 0.0 0.0 0.00 0.00 0.00 89 1008.5
20260505075347 8 223 0.0 0.0 0.00 0.00 0.00 88 1008.5
20260505075144 8 223 0.0 0.0 0.00 0.00 0.00 88 1008.5
20260505074836 8 223 0.0 0.0 0.00 0.00 0.00 88 1008.4
20260505074634 8 223 0.0 0.0 0.00 0.00 0.00 88 1008.5
20260505074341 8 223 0.0 0.0 0.00 0.00 0.00 88 1008.5
20260505074141 8 223 0.0 0.0 0.00 0.00 0.00 88 1008.5
20260505073847 8 223 0.0 0.0 0.00 0.00 0.00 88 1008.5
20260505073648 8 223 0.0 0.0 0.00 0.00 0.00 88 1008.4
20260505073335 8 223 0.0 0.0 0.00 0.00 0.00 88 1008.5
20260505073136 8 223 0.0 0.0 0.00 0.00 0.00 88 1008.4
20260505072842 8 223 0.0 0.0 0.00 0.00 0.00 88 1008.4
20260505072645 8 223 0.0 0.0 0.00 0.00 0.00 88 1008.4
20260505072354 8 223 0.0 0.0 0.00 0.00 0.00 88 1008.4
20260505072135 8 223 0.0 0.0 0.00 0.00 0.00 88 1008.4
20260505071842 8 223 0.0 0.0 0.00 0.00 0.00 88 1008.4
20260505071643 8 223 0.0 0.0 0.00 0.00 0.00 88 1008.5
20260505071347 8 223 0.0 0.0 0.00 0.00 0.00 88 1008.4
20260505071144 8 223 0.0 0.0 0.00 0.00 0.00 88 1008.4
20260505070835 8 223 0.0 0.0 0.00 0.00 0.00 88 1008.4
20260505070635 8 223 0.0 0.0 0.00 0.00 0.00 88 1008.4
20260505070346 8 223 0.0 0.0 0.00 0.00 0.00 88 1008.4
20260505070146 8 223 0.0 0.0 0.00 0.00 0.00 88 1008.4
20260505065837 8 223 0.0 0.0 0.00 0.00 0.00 88 1008.4
20260505065636 8 223 0.0 0.0 0.00 0.00 0.00 88 1008.4
20260505065346 8 223 0.0 0.0 0.00 0.00 0.00 87 1008.4
20260505065143 8 223 0.0 0.0 0.00 0.00 0.00 87 1008.5
20260505064833 8 223 0.0 0.0 0.00 0.00 0.00 87 1008.5
20260505064633 8 223 0.0 0.0 0.00 0.00 0.00 87 1008.5
20260505064343 8 223 0.0 0.0 0.00 0.00 0.00 87 1008.5
20260505064140 8 223 0.0 0.0 0.00 0.00 0.00 87 1008.4
20260505063852 8 223 0.0 0.0 0.00 0.00 0.00 87 1008.4
20260505063712 8 223 0.0 0.0 0.00 0.00 0.00 87 1008.4
20260505063341 8 223 0.0 0.0 0.00 0.00 0.00 87 1008.4
20260505063140 8 223 0.0 0.0 0.00 0.00 0.00 87 1008.4
20260505062909 8 223 0.0 0.0 0.00 0.00 0.00 86 1008.4
20260505062708 8 223 0.0 0.0 0.00 0.00 0.00 86 1008.5
20260505062353 8 223 0.0 0.0 0.00 0.00 0.00 86 1008.5
20260505062135 9 223 0.0 0.0 0.00 0.00 0.00 86 1008.5
20260505061902 9 223 0.0 0.0 0.00 0.00 0.00 86 1008.5
20260505061643 9 223 0.0 0.0 0.00 0.00 0.00 86 1008.6
20260505061347 9 223 0.0 0.0 0.00 0.00 0.00 86 1008.6
20260505061149 9 223 0.0 0.0 0.00 0.00 0.00 85 1008.6
20260505060835 9 223 0.0 0.0 0.00 0.00 0.00 85 1008.6
20260505060636 9 223 0.0 0.0 0.00 0.00 0.00 85 1008.6
20260505060343 9 223 0.0 0.0 0.00 0.00 0.00 85 1008.6
20260505060142 9 223 0.0 0.0 0.00 0.00 0.00 85 1008.6
20260505055832 9 223 0.0 0.0 0.00 0.00 0.00 85 1008.6
20260505055650 9 223 0.0 0.0 0.00 0.00 0.00 85 1008.6
20260505055342 9 223 0.0 0.0 0.00 0.00 0.00 85 1008.6
20260505055137 9 223 0.0 0.0 0.00 0.00 0.00 84 1008.7
20260505054847 9 223 0.0 0.0 0.00 0.00 0.00 84 1008.6
20260505054645 9 223 0.0 0.0 0.00 0.00 0.00 84 1008.7
20260505054336 10 223 0.0 0.0 0.00 0.00 0.00 84 1008.7
20260505054134 10 223 0.0 0.0 0.00 0.00 0.00 83 1008.7
20260505053844 10 223 0.0 0.0 0.00 0.00 0.00 83 1008.7
20260505053642 10 223 0.0 0.0 0.00 0.00 0.00 83 1008.7
20260505053333 10 223 0.0 0.0 0.00 0.00 0.00 83 1008.8
20260505053132 10 223 0.0 0.0 0.00 0.00 0.00 83 1008.7
20260505052844 10 223 0.0 0.0 0.00 0.00 0.00 83 1008.7
20260505052643 10 223 0.0 0.0 0.00 0.00 0.00 83 1008.8
20260505052333 10 223 0.0 0.0 0.00 0.00 0.00 82 1008.8
20260505052152 10 223 0.0 0.0 0.00 0.00 0.00 82 1008.8
20260505051903 10 223 0.0 0.0 0.00 0.00 0.00 82 1008.8
20260505051641 10 223 0.0 0.0 0.00 0.00 0.00 82 1008.9
20260505051349 10 223 0.0 0.0 0.00 0.00 0.00 82 1008.9
20260505051208 10 223 0.0 0.0 0.00 0.00 0.00 82 1008.9
20260505050833 10 223 0.0 0.0 0.00 0.00 0.00 82 1008.9
20260505050657 10 223 0.0 0.0 0.00 0.00 0.00 81 1009.0
20260505050343 10 223 0.0 0.0 0.00 0.00 0.00 81 1009.0
20260505050146 10 223 0.0 0.0 0.00 0.00 0.00 81 1008.9
20260505041638 11 223 0.0 0.0 0.00 0.00 0.00 79 1008.9
20260505041348 11 223 0.0 0.0 0.00 0.00 0.00 78 1009.0
20260505041144 11 223 0.0 0.0 0.00 0.00 0.00 78 1008.9
20260505040836 11 223 0.0 0.0 0.00 0.00 0.00 78 1008.9
20260505040634 11 223 0.0 0.0 0.00 0.00 0.00 78 1008.9
20260505040347 11 223 0.0 0.0 0.00 0.00 0.00 78 1008.9
20260505040145 11 223 0.0 0.0 0.00 0.00 0.00 78 1008.9
20260505035844 11 223 0.0 0.0 0.00 0.00 0.00 77 1008.9
20260505035708 11 223 0.0 0.0 0.00 0.00 0.00 77 1008.9
20260505035333 11 223 0.0 0.0 0.00 0.00 0.00 76 1008.9
20260505035135 11 223 0.0 0.0 0.00 0.00 0.00 76 1008.9
20260505034842 11 223 0.0 0.0 0.00 0.00 0.00 76 1008.9
20260505034645 11 223 0.0 0.0 0.00 0.00 0.00 76 1008.9
20260505034331 11 223 0.0 0.0 0.00 0.00 0.00 76 1009.0
20260505034134 11 223 0.0 0.0 0.00 0.00 0.00 76 1009.0
20260505033901 11 223 0.0 0.0 0.00 0.00 0.00 76 1009.0
20260505033642 11 223 0.0 0.0 0.00 0.00 0.00 76 1008.9
20260505033350 12 223 0.0 0.0 0.00 0.00 0.00 76 1009.0
20260505033147 12 223 0.0 0.0 0.00 0.00 0.00 76 1009.0
20260505032857 12 223 0.0 0.0 0.00 0.00 0.00 76 1009.0
20260505032634 12 223 0.0 0.0 0.00 0.00 0.00 76 1009.0
20260505032346 12 223 0.0 0.0 0.00 0.00 0.00 75 1009.0
20260505032144 12 223 0.0 0.0 0.00 0.00 0.00 75 1009.0
20260505031835 12 223 0.0 0.0 0.00 0.00 0.00 75 1009.1
20260505031653 12 223 0.0 0.0 0.00 0.00 0.00 75 1009.1
20260505031342 12 223 0.0 0.0 0.00 0.00 0.00 74 1009.1
20260505031202 12 223 0.0 0.0 0.00 0.00 0.00 74 1009.1
20260505030851 12 223 0.0 0.0 0.00 0.00 0.00 74 1009.1
20260505030649 12 223 0.0 0.0 0.00 0.00 0.00 74 1009.1
20260505030341 12 223 0.0 0.0 0.00 0.00 0.00 74 1009.2
20260505030139 12 223 0.0 0.0 0.00 0.00 0.00 73 1009.2
20260505025850 12 223 0.0 0.0 0.00 0.00 0.00 73 1009.1
20260505025648 12 223 0.0 0.0 0.00 0.00 0.00 73 1009.2
20260505025339 12 223 0.0 0.0 0.00 0.00 0.00 73 1009.2
20260505025137 12 223 0.0 0.0 0.00 0.00 0.00 72 1009.1
20260505024844 12 223 0.0 0.0 0.00 0.00 0.00 72 1009.1
20260505024646 12 223 0.0 0.0 0.00 0.00 0.00 72 1009.1
20260505024333 12 223 0.0 0.0 0.00 0.00 0.00 72 1009.1
20260505024135 12 223 0.0 1.6 0.00 0.00 0.00 71 1009.1
20260505023842 13 223 0.0 3.2 0.00 0.00 0.00 71 1009.1
20260505023644 13 223 0.0 3.2 0.00 0.00 0.00 71 1009.1
20260505023411 13 223 1.6 3.2 0.00 0.00 0.00 71 1009.1
20260505023132 13 223 0.0 3.2 0.00 0.00 0.00 71 1009.1
20260505022837 13 223 0.0 3.2 0.00 0.00 0.00 70 1009.1
20260505022639 13 223 1.6 3.2 0.00 0.00 0.00 70 1009.1
20260505022405 13 223 0.0 1.6 0.00 0.00 0.00 69 1009.1
20260505022142 13 223 1.6 1.6 0.00 0.00 0.00 69 1009.1
20260505021853 13 223 0.0 1.6 0.00 0.00 0.00 68 1009.0
20260505021649 13 223 0.0 1.6 0.00 0.00 0.00 68 1009.0
20260505021359 13 223 0.0 1.6 0.00 0.00 0.00 67 1009.1
20260505021154 13 223 0.0 1.6 0.00 0.00 0.00 67 1009.1
20260505020906 13 223 0.0 1.6 0.00 0.00 0.00 67 1009.2
20260505020643 13 223 0.0 1.6 0.00 0.00 0.00 67 1009.1
20260505020334 13 223 0.0 3.2 0.00 0.00 0.00 66 1009.2
20260505020153 14 223 0.0 3.2 0.00 0.00 0.00 66 1009.2
20260505015905 14 223 1.6 3.2 0.00 0.00 0.00 66 1009.2
20260505015643 14 223 0.0 3.2 0.00 0.00 0.00 66 1009.1
20260505015333 14 223 0.0 0.0 0.00 0.00 0.00 66 1009.0
20260505015151 14 223 0.0 0.0 0.00 0.00 0.00 65 1009.0
20260505014838 14 223 0.0 0.0 0.00 0.00 0.00 65 1009.0
20260505014639 15 223 0.0 0.0 0.00 0.00 0.00 64 1008.9
20260505014346 15 223 0.0 1.6 0.00 0.00 0.00 63 1008.9
20260505014148 15 223 0.0 3.2 0.00 0.00 0.00 63 1009.0
20260505013834 15 223 0.0 3.2 0.00 0.00 0.00 62 1008.9
20260505013657 15 223 0.0 3.2 0.00 0.00 0.00 62 1008.9
20260505013403 15 223 1.6 3.2 0.00 0.00 0.00 61 1009.0
20260505013144 15 223 1.6 3.2 0.00 0.00 0.00 60 1008.9
20260505012832 16 223 1.6 3.2 0.00 0.00 0.00 60 1008.9
20260505012633 16 223 1.6 3.2 0.00 0.00 0.00 60 1008.8
20260505012338 16 223 1.6 3.2 0.00 0.00 0.00 59 1008.8
20260505012156 16 223 1.6 1.6 0.00 0.00 0.00 58 1008.8
20260505011907 16 223 0.0 1.6 0.00 0.00 0.00 57 1008.8
20260505011645 16 223 0.0 1.6 0.00 0.00 0.00 56 1008.7
20260505011335 17 223 0.0 0.0 0.00 0.00 0.00 55 1008.7
20260505011154 17 223 0.0 1.6 0.00 0.00 0.00 54 1008.7
20260505010845 17 223 0.0 1.6 0.00 0.00 0.00 54 1008.6
20260505010643 17 223 0.0 3.2 0.00 0.00 0.00 53 1008.6
20260505010335 17 223 0.0 3.2 0.00 0.00 0.00 53 1008.6
20260505010151 17 223 0.0 3.2 0.00 0.00 0.00 53 1008.5
20260505005843 17 223 1.6 4.8 0.00 0.00 0.00 52 1008.5
20260505005703 18 223 1.6 4.8 0.00 0.00 0.00 51 1008.5
20260505005351 18 223 3.2 4.8 0.00 0.00 0.00 51 1008.5
20260505005151 18 223 1.6 6.4 0.00 0.00 0.00 50 1008.4
20260505004842 18 223 1.6 6.4 0.00 0.00 0.00 49 1008.4
20260505004639 18 223 3.2 6.4 0.00 0.00 0.00 48 1008.3
20260505004407 18 223 3.2 6.4 0.00 0.00 0.00 48 1008.2
20260505004209 19 223 1.6 4.8 0.00 0.00 0.00 48 1008.2
20260505003855 19 223 1.6 4.8 0.00 0.00 0.00 48 1008.2
20260505003657 19 223 1.6 12.9 0.00 0.00 0.00 48 1008.2
20260505003342 19 223 3.2 12.9 0.00 0.00 0.00 48 1008.1
20260505003139 19 223 3.2 12.9 0.00 0.00 0.00 47 1008.1
20260505002850 19 223 6.4 12.9 0.00 0.00 0.00 47 1008.1
20260505002647 19 209 4.8 9.7 0.00 0.00 0.00 47 1008.0
20260505002338 19 209 3.2 9.7 0.00 0.00 0.00 46 1008.0
20260505002136 19 209 4.8 9.7 0.00 0.00 0.00 46 1008.0
20260505001847 20 200 3.2 6.4 0.00 0.00 0.00 46 1007.9
20260505001645 20 200 4.8 6.4 0.00 0.00 0.00 46 1007.8
20260505001354 20 198 4.8 6.4 0.00 0.00 0.00 46 1007.9
20260505001212 20 187 3.2 6.4 0.00 0.00 0.00 46 1007.8
20260505000903 20 187 3.2 8.0 0.00 0.00 0.00 45 1007.7
20260505000700 20 187 3.2 8.0 0.00 0.00 0.00 45 1007.8
20260505000351 20 184 4.8 8.0 0.00 0.00 0.00 44 1007.7
20260505000146 20 198 3.2 6.4 0.00 0.00 0.00 44 1007.7
20260504235837 20 198 3.2 8.0 0.00 0.00 0.00 44 1007.6
20260504235634 20 198 3.2 8.0 0.00 0.00 0.00 44 1007.6
20260504235402 20 197 4.8 12.9 0.00 0.00 0.00 44 1007.5
20260504235143 20 198 4.8 12.9 0.00 0.00 0.00 44 1007.5
20260504234910 20 233 6.4 17.7 0.00 0.00 0.00 44 1007.4
20260504234649 20 219 6.4 17.7 0.00 0.00 0.00 43 1007.4
20260504234335 21 214 3.2 17.7 0.00 0.00 0.00 43 1007.4
20260504234138 21 212 6.4 17.7 0.00 0.00 0.00 42 1007.3
20260504233904 21 198 4.8 11.3 0.00 0.00 0.00 42 1007.2
20260504233642 21 193 6.4 11.3 0.00 0.00 0.00 43 1007.1
20260504233332 21 211 6.4 11.3 0.00 0.00 0.00 42 1007.1
20260504233151 21 221 8.0 11.3 0.00 0.00 0.00 42 1007.1
20260504232842 21 191 6.4 11.3 0.00 0.00 0.00 42 1007.1
20260504232639 21 206 8.0 11.3 0.00 0.00 0.00 42 1007.0
20260504232351 21 209 6.4 12.9 0.00 0.00 0.00 41 1007.1
20260504232149 21 222 8.0 12.9 0.00 0.00 0.00 41 1007.0
20260504231839 21 212 8.0 12.9 0.00 0.00 0.00 42 1007.0
20260504231636 21 219 8.0 16.1 0.00 0.00 0.00 41 1007.0
20260504231347 21 223 8.0 16.1 0.00 0.00 0.00 41 1007.0
20260504231205 21 225 9.7 16.1 0.00 0.00 0.00 41 1007.0
20260504230834 21 222 9.7 16.1 0.00 0.00 0.00 41 1006.9
20260504230633 21 227 6.4 19.3 0.00 0.00 0.00 42 1006.9
20260504230345 21 229 8.0 19.3 0.00 0.00 0.00 41 1006.9
20260504230204 21 239 8.0 19.3 0.00 0.00 0.00 40 1006.9
20260504225833 21 217 11.3 19.3 0.00 0.00 0.00 41 1006.8
20260504225652 21 229 11.3 22.5 0.00 0.00 0.00 40 1006.8
20260504225343 21 237 8.0 22.5 0.00 0.00 0.00 40 1006.9
20260504225202 21 229 8.0 22.5 0.00 0.00 0.00 40 1006.8
20260504224848 21 217 14.5 22.5 0.00 0.00 0.00 40 1006.8
20260504224650 21 199 11.3 19.3 0.00 0.00 0.00 40 1006.8